Dewpoint
38 41 42 43 45 48 58 60 61 59 60 60 60 60 60 59 59 59 58 57 56 56 56 57 56 57 56 56 56 56 55 54 51 53 55 56 56 55 54 56 56 55 54
38 39 40 42 43 45 47 53 60 59 59 59 59 60 59 59 59 58 57 56 55 55 56 56 56 56 56 56 56 55 55 54 53 51 53 53 55 55 55 55 55 55 56
35 37 38 39 40 41 44 46 54 59 59 59 60 60 59 58 58 58 57 56 56 55 55 56 56 56 55 56 56 55 55 54 54 53 52 53 54 55 54 55 55 56 56
34 34 36 37 38 39 41 42 43 47 58 59 59 59 59 59 58 58 57 56 55 55 56 56 56 56 56 55 55 55 55 55 54 54 53 52 53 54 54 54 53 54 50
32 33 34 35 37 37 39 39 40 40 42 44 58 59 59 59 58 58 57 56 56 55 56 57 57 55 51 53 56 55 55 55 54 53 53 53 53 52 53 54 53 54 51
30 31 33 33 34 35 36 37 37 38 38 38 40 45 51 44 40 45 53 56 57 56 56 57 57 50 50 46 46 48 53 55 54 54 53 52 52 53 54 54 53 50 46
29 29 30 31 32 33 34 34 35 36 36 36 36 36 37 37 37 43 43 57 56 56 56 56 56 55 51 54 39 38 37 37 39 54 53 52 51 52 52 51 52 50 47
27 27 28 29 30 31 32 32 33 34 34 34 34 35 35 35 36 38 41 50 46 40 40 43 53 52 50 47 45 40 36 36 37 39 41 39 39 41 46 49 50 39 36
25 25 27 28 28 29 29 31 32 32 32 32 32 32 33 33 35 35 36 36 34 33 33 34 35 41 37 42 43 36 32 32 34 34 34 34 34 34 36 43 39 39 34
23 24 25 27 27 28 29 29 31 31 31 30 30 30 31 31 33 35 35 33 32 31 32 32 33 35 36 37 41 37 33 30 30 30 29 29 29 30 30 32 34 36 32
24 23 24 25 26 27 28 29 29 30 30 30 30 30 30 30 31 32 34 32 32 31 31 31 32 33 34 34 34 34 32 30 28 28 28 27 27 26 26 27 27 32 33
26 23 23 24 25 26 26 27 27 28 28 27 28 28 30 30 31 31 31 30 30 28 27 29 30 32 32 32 31 32 31 30 28 27 25 24 24 24 24 25 25 25 26
24 25 22 23 23 25 24 25 26 25 25 25 26 26 27 28 29 30 30 29 28 26 27 28 28 27 27 27 28 29 29 29 26 23 22 22 23 25 26 25 26 25 24
22 23 23 21 21 22 23 24 24 25 24 24 24 24 25 26 27 27 27 26 26 26 25 25 26 26 25 24 25 25 25 25 24 23 22 23 24 23 22 24 23 23 21
20 21 22 22 20 20 21 23 23 25 26 24 24 24 23 23 26 26 26 25 25 24 24 23 22 22 21 22 22 22 23 23 23 23 23 23 22 21 21 21 18 17 16
19 20 21 21 21 20 18 18 21 23 23 24 25 24 24 25 24 24 24 24 23 22 20 18 18 19 18 19 19 19 20 21 22 22 21 21 20 19 19 19 18 15 15
19 20 19 19 19 17 16 15 12 15 19 21 21 22 22 22 22 22 21 20 20 18 15 15 15 16 17 17 17 17 16 18 20 20 20 20 20 19 19 18 18 16 15
15 15 14 15 12 9 6 7 7 10 8 10 15 18 20 20 20 19 18 15 12 13 13 12 12 13 13 13 13 13 14 15 16 16 17 17 18 17 17 16 16 16 14
16 15 12 10 9 7 7 7 7 9 9 10 11 12 12 15 16 16 14 9 9 9 10 10 10 10 9 9 9 9 9 10 11 11 12 12 14 14 13 12 11 12 12
11 12 9 9 9 9 6 6 6 6 6 6 7 7 8 7 5 5 6 5 7 7 8 7 7 6 5 6 5 5 7 7 8 9 8 8 10 11 10 10 10 9 8
7 8 7 8 7 8 5 4 3 3 3 3 1 -1 2 3 2 2 3 3 3 3 4 4 2 2 3 3 2 2 1 1 3 5 7 7 7 8 9 9 9 8 7
4 6 7 5 6 4 9 10 6 -1 -0 0 -2 3 -1 -2 -0 -0 -2 -5 -3 2 2 -0 -2 -2 -2 -2 -2 -3 -4 -4 -3 -1 3 5 6 6 6 5 5 6 6
3 2 5 7 7 3 1 5 2 -3 -4 -7 -2 -1 -2 -10 -11 -6 -9 -12 -5 -6 -4 -4 -4 -4 -5 -7 -5 -5 -5 -6 -6 -5 -2 2 3 3 3 3 3 3 2
0 -3 3 1 1 4 -2 -5 -4 0 -0 -7 -12 -10 -11 -14 -17 -15 -14 -14 -11 -13 -13 -11 -6 -6 -5 -8 -8 -5 -4 -8 -6 -5 -8 -2 1 1 0 0 1 -2 -2
-6 -7 -7 -5 -8 -9 -4 -1 -9 -12 -9 -10 -7 -4 -1 -10 -8 -16 -16 -13 -11 -12 -6 -7 -8 -9 -9 -10 -9 -9 -10 -11 -11 -11 -8 -6 -5 -6 -4 -3 -4 -2 -4
-1 -4 -7 -8 -9 -12 -15 -15 -9 -9 -11 -12 -12 -9 -6 -3 -3 -15 -14 -9 -10 -11 -11 -11 -9 -9 -8 -7 -7 -9 -11 -11 -12 -16 -13 -6 -5 -6 -6 -6 -6 -4 -5
Lifted_Index
1 1 0 0 1 1 0 -0 -2 -3 -3 -3 -2 -2 -2 -2 -2 -2 -2 -2 -1 -1 0 1 1 1 2 2 2 2 2 2 2 2 3 4 4 4 5 5 4 3 3
1 1 0 0 0 0 0 -1 -1 -2 -2 -2 -2 -2 -2 -2 -2 -2 -2 -2 -1 -1 0 1 1 1 2 2 2 2 2 2 2 2 3 4 4 4 4 4 4 3 3
2 2 1 0 -0 -0 -0 -1 -1 -1 -1 -1 -1 -1 -1 -1 -1 -1 -2 -2 -1 -1 0 1 1 1 1 2 2 2 2 2 2 2 3 3 4 4 4 3 3 3 3
4 4 2 1 1 0 -0 -0 -1 -1 -1 -1 -1 -1 -1 -1 -1 -1 -1 -1 -1 -0 0 0 1 1 1 2 2 2 2 2 2 2 2 3 3 3 3 3 3 3 3
7 6 5 4 3 2 1 1 0 -0 -0 -0 -0 -0 -0 -0 -0 -0 -1 -1 -0 -0 -0 0 1 1 1 1 1 2 2 2 2 2 2 2 3 3 3 3 2 2 2
9 9 8 7 6 5 4 3 2 1 1 0 0 0 0 0 -0 -0 0 0 0 0 0 0 0 1 1 1 1 2 2 2 2 2 2 2 2 3 2 2 2 2 2
10 10 10 10 9 8 7 6 5 3 2 2 2 2 1 1 1 1 1 1 1 1 0 0 0 1 1 1 1 2 2 2 2 2 3 3 3 3 3 3 3 3 3
11 11 11 11 11 10 10 9 8 6 5 4 4 4 3 3 2 1 1 1 1 1 0 0 0 0 1 1 2 2 2 2 2 2 3 3 3 4 4 3 3 4 4
11 11 12 12 11 11 11 11 10 10 9 8 7 7 7 5 4 3 2 2 1 1 1 0 0 1 1 1 1 2 2 2 3 3 3 4 4 4 4 4 4 4 4
13 13 13 13 12 12 12 12 12 11 11 11 10 10 9 8 7 6 5 3 3 2 1 1 1 1 2 2 2 2 2 3 3 3 4 4 4 4 4 4 4 4 4
15 14 14 14 13 13 12 12 12 12 12 11 11 11 11 11 11 10 9 7 6 5 4 3 3 4 3 3 3 3 3 3 3 4 4 4 4 4 4 4 4 4 4
16 15 15 15 14 14 13 12 12 12 11 11 11 11 12 13 14 14 13 11 10 10 9 8 8 8 7 6 5 5 5 5 5 5 5 5 6 6 6 6 6 7 7
16 15 15 15 15 15 14 13 13 12 12 11 11 11 12 14 15 16 16 15 14 13 13 13 12 12 11 10 10 9 9 9 8 8 8 9 9 10 10 10 10 10 10
16 16 16 16 16 16 15 15 14 14 14 13 13 12 13 14 15 17 17 16 16 16 15 15 14 14 13 13 13 13 13 12 12 11 11 12 13 13 13 13 13 13 12
16 16 16 16 16 16 16 17 17 17 17 16 16 16 15 15 17 18 17 17 17 17 16 16 15 14 14 14 14 15 15 15 14 14 14 14 14 14 15 15 16 15 15
16 16 17 17 16 16 17 17 18 19 20 19 19 19 18 18 18 19 18 18 18 17 16 15 15 15 15 15 15 16 16 17 17 16 16 16 16 16 16 17 17 17 17
17 17 17 17 16 16 16 17 17 18 19 20 20 20 20 20 19 19 19 19 19 18 17 16 15 15 16 16 16 17 17 18 19 18 18 18 17 17 17 17 18 19 19
18 17 17 17 17 17 17 17 17 17 17 18 19 20 20 20 20 20 19 19 18 17 17 17 17 17 18 18 18 18 19 19 20 20 19 19 19 19 18 19 19 20 21
18 18 18 18 18 18 18 18 17 17 17 17 18 19 20 20 20 19 19 18 17 17 18 18 19 19 20 20 20 20 20 21 21 21 21 21 21 21 21 21 21 21 22
19 19 18 18 18 18 18 18 18 18 18 18 18 19 20 19 19 19 19 19 18 18 19 20 21 21 22 22 22 22 22 22 22 22 22 23 23 23 23 23 22 22 22
19 19 18 18 17 17 17 17 18 18 19 19 19 20 21 20 19 19 20 20 21 21 21 22 22 23 23 23 23 23 23 23 23 23 23 23 23 23 23 23 23 22 22
19 19 18 17 17 17 16 17 17 17 18 19 20 21 21 21 21 21 21 22 23 23 23 24 24 24 24 24 24 24 23 23 23 24 24 23 23 23 23 23 23 22 22
18 18 17 16 16 16 16 16 16 16 17 18 18 19 20 21 21 22 22 23 23 24 24 24 24 24 25 25 25 25 24 24 24 25 24 24 24 24 23 23 23 22 22
18 17 16 16 15 15 15 15 15 16 16 17 17 18 19 20 20 21 22 22 23 23 24 24 24 24 24 25 25 25 25 25 25 25 25 24 24 24 23 23 23 23 22
17 16 16 15 15 15 15 15 15 15 16 16 16 17 18 18 19 20 20 21 22 22 23 23 23 24 24 24 24 24 25 25 25 25 25 24 24 23 23 23 22 22 22
16 16 15 15 15 14 15 15 15 15 15 15 16 17 17 18 18 19 20 20 21 21 22 22 23 23 23 23 24 24 24 24 24 24 24 24 23 23 22 22 22 22 22